Regional Weather Roundup
Issued by NWS Wilmington, NC

Home | Current Version | Previous Version | Text Only | Print | Product List | Glossary On
Versions: 1 2 3 4 5 6 7 8 9 10 11 12 13 14 15 16 17 18 19 20 21 22 23 24 25 26 27 28 29 30 31 32 33 34 35 36 37 38 39 40 41 42 43 44 45 46 47 48 49 50
840
ASUS42 KILM 232013
RWRILM
RWRILM
REGIONAL HOURLY WEATHER ROUNDUP
NATIONAL WEATHER SERVICE WILMINGTON NC
400 PM EDT TUE MAY 23 2017

NOTE: "FAIR" INDICATES FEW OR NO CLOUDS BELOW 12,000 FEET WITH NO
SIGNIFICANT WEATHER AND/OR OBSTRUCTIONS TO VISIBILITY.

...............WFO WILMINGTON COUNTY WARNING AREA...............

......COASTAL NC AND SC COUNTIES......

CITY           SKY/WX    TMP DP  RH WIND       PRES   REMARKS
WILMINGTON     PTSUNNY   78  69  73 S15       29.73F
N MYRTLE BEACH LGT RAIN  72  70  93 SW8G23    29.75S FOG
MYRTLE BEACH   SHOWER    73  70  88 W10       29.77

......INLAND NC AND SC COUNTIES.......

CITY           SKY/WX    TMP DP  RH WIND       PRES   REMARKS
LUMBERTON      LGT RAIN  76  71  85 SW17      29.70F
ELIZABETHTOWN  HVY RAIN  74  72  91 SW5       29.73S
WHITEVILLE     RAIN      72  70  95 S8        29.73F
FLORENCE       LGT RAIN  73  71  93 W8        29.72F
DARLINGTON     CLOUDY    75  70  84 W13       29.73F
KINGSTREE      CLOUDY   N/A N/A N/A SW5       29.75S
HARTSVILLE     PTSUNNY   72  68  88 W5        29.73F
BENNETTSVILLE  FAIR      77  72  83 SW10      29.71F
CONWAY         TSTM      70  70 100 S7        29.76R
GEORGETOWN     PTSUNNY   72  70  94 SW10      29.77F
MARION         RAIN      72  70  94 SW8       29.74S

....................REST OF NORTH CAROLINA......................

.........EASTERN NC.........

CITY           SKY/WX    TMP DP  RH WIND       PRES   REMARKS
CAPE HATTERAS  CLOUDY    76  71  85 SW16G22   29.75F
JACKSONVILLE   CLOUDY    78  71  79 S13       29.71F
MOREHEAD CITY  LGT RAIN  78  75  90 SW14      29.74F
KENANSVILLE    CLOUDY    73  72  94 W5        29.72S
NEW BERN       LGT RAIN  75  72  90 S9G20     29.72F FOG
ELIZABETH CITY CLOUDY    68  68 100 E15       29.75F

.........CENTRAL NC.........

CITY           SKY/WX    TMP DP  RH WIND       PRES   REMARKS
RALEIGH DURHAM RAIN      68  68 100 CALM      29.73F FOG
ROCKY MOUNT    LGT RAIN  68  68 100 NE7       29.73F
ROANOKE RAPIDS NOT AVBL
FAYETTEVILLE   HVY RAIN  74  72  93 E9        29.69F FOG
HOFFMAN        NOT AVBL

.........WESTERN NC.........

CITY           SKY/WX    TMP DP  RH WIND       PRES   REMARKS
CHARLOTTE      CLOUDY    70  66  87 SE5       29.74F
GREENSBORO     LGT RAIN  62  62 100 NE14      29.75F FOG
HICKORY        NOT AVBL
BOONE          NOT AVBL
ASHEVILLE      NOT AVBL

.....................REST OF SOUTH CAROLINA.....................

.........EASTERN SC.........

CITY           SKY/WX    TMP DP  RH WIND       PRES   REMARKS
CHARLESTON     CLOUDY    74  70  87 NW9       29.77F
BEAUFORT MCAS  CLOUDY    77  74  90 W6        29.76F
HILTON HEAD    MOSUNNY   79  73  83 S12       29.78F

.........CENTRAL SC.........

CITY           SKY/WX    TMP DP  RH WIND       PRES   REMARKS
COLUMBIA       LGT RAIN  73  69  87 W5        29.74F FOG
ORANGEBURG     LGT RAIN  71  68  90 SW5       29.76F
SUMTER SHAW    NOT AVBL

.........WESTERN SC.........

CITY           SKY/WX    TMP DP  RH WIND       PRES   REMARKS
GREENVILLE     NOT AVBL
ROCK HILL      CLOUDY    69  66  90 SW6       29.75F
ANDERSON       CLOUDY    69  66  90 S7        29.73F
CLEMSON        NOT AVBL
GREENWOOD      LGT RAIN  68  65  90 SW8       29.77F


...................COASTAL AND OFFSHORE REPORTS..................

................LOCAL PIERS AND NC RESERVE................


STATION/POSITION TIME  SKY/WX   TEMP    WIND        PRES    VSBY
                                AIR SEA DIR/SP/G
                 (UTC)          (F)     (DEG/KT/KT) (MB)    (MI)
JOHNY MRCER PIER 1948            76 75  190/ 19/ 22 1006.1F
NC RESRV MASNBRO 1845            81     250/  6     1008.0
OCEAN CREST PIER NOT AVBL
SPRINGMAID  PIER 1948                               1006.9R


................COASTAL AND OFFSHORE BUOYS................


STATION/POSITION TIME  SKY/WX   TEMP    WIND        PRES    VSBY
                                AIR SEA DIR/SP/G
                 (UTC)          (F)     (DEG/KT/KT) (MB)    (MI)
DIMNDSHOAL 41025 1950            75 77  220/ 21/ 25 1007.5F
WVE H/P(F/S)=  5/ 6 SWL H/P/D(F/S/D)=  2/120/ 9

CAPE LOOKOUT     2000            77     190/ 14/ 17 1007.1F
ONSLOW BAY 41036 NOT AVBL
ONSLOW BAY 41064 1908            76 77  230/ 12/ 16 1008.1F
ONSLOW BAY 41159 1943               77                N/A
WVE H/P(F/S)=  6/ 7

MASNBO INL 41110 1929               75                N/A
WVE H/P(F/S)=  4/ 7

WILM HARBR 41108 1947               77                N/A
WVE H/P(F/S)=  5/ 6

27SE WRITB 41037 1908            75 75  210/ 12/ 17 1007.1F
FRYING PAN 41013 1950            78 78  210/ 19/ 23 1007.9F
WVE H/P(F/S)=  6/ 7 SWL H/P/D(F/S/D)=  3/220/14

SUNST NRSH 41024 1908            76 77  200/ 12/ 16 1007.5F
CAPRS NRSH 41029 1908            75 77  280/ 16/ 21 1008.6R
EDISTO     41004 1950            77 78  220/ 17/ 23 1008.4F
WVE H/P(F/S)=  5/ 7



..........OFFSHORE BUOYS BEYOND 100 NM OFFSHORE...........
.....IN A TRIANGLE---HAT TO BERMUDA TO BAHAMAS TO HAT.....


STATION/POSITION TIME  SKY/WX   TEMP    WIND        PRES    VSBY
                                AIR SEA DIR/SP/G
                 (UTC)          (F)     (DEG/KT/KT) (MB)    (MI)
150E HAT   41001 2000            75 74  200/ 16/ 19 1011.9
W BERMUDA  41048 2000            75 75  210/ 16/ 17 1016.5
ATLANTIC S 41049 1950            75 79  160/  4/  6 1021.0F
WVE H/P(F/S)=  6/12 SWL H/P/D(F/S/D)=  7/ 20/12

E BAHAMAS  41046 2000            79 80  130/ 12/ 14 1017.5
NE BAHAMAS 41047 2000            78 79  210/ 10/ 14 1017.8
120E CANVRL41010 2000            80 79  190/ 16/ 19 1012.1

END




USA.gov is the U.S. government's official web portal to all federal, state and local government web resources and services.